• In Portugal
  • List of Countries
  • For 7 days
  • Water Temperature
  • Satellite Maps
  • Weather Map
  • Weather Widgets
  • user-avatar
    Login

    Hourly Weather Elbasan

    Today, 18 February, Sunday

    Time Temperature Precipitation Wind Pressure Humidity
    00:00 +8°C° 0 mm 1 mps 738 mmHg 76%
    01:00 +8°C° 0 mm 1 mps 737 mmHg 77%
    02:00 +8°C° 0 mm 1 mps 737 mmHg 78%
    03:00 +8°C° 0 mm 1 mps 737 mmHg 78%
    04:00 +8°C° 0 mm 1 mps 737 mmHg 78%
    05:00 +8°C° 0 mm 1 mps 737 mmHg 78%
    06:00 +8°C° 0 mm 1 mps 737 mmHg 78%
    07:00 +8°C° 0 mm 1 mps 736 mmHg 78%
    08:00 +9°C° 0 mm 1 mps 736 mmHg 73%
    09:00 +11°C° 0 mm 1 mps 736 mmHg 69%
    10:00 +12°C° 0 mm 1 mps 736 mmHg 65%
    11:00 +13°C° 0 mm 1 mps 736 mmHg 64%
    12:00 +13°C° 0 mm 2 mps 736 mmHg 63%
    13:00 +14°C° 0 mm 2 mps 735 mmHg 62%
    14:00 +13°C° 0 mm 2 mps 735 mmHg 65%
    15:00 +13°C° 0 mm 2 mps 735 mmHg 68%
    16:00 +13°C° 0 mm 1 mps 735 mmHg 70%
    17:00 +12°C° 0 mm 1 mps 735 mmHg 74%
    18:00 +11°C° 0 mm 1 mps 735 mmHg 78%
    19:00 +10°C° 0 mm 1 mps 735 mmHg 82%
    20:00 +10°C° 0.1 mm 1 mps 735 mmHg 83%
    21:00 +10°C° 0.1 mm 1 mps 735 mmHg 83%
    22:00 +10°C° 0.1 mm 1 mps 735 mmHg 83%
    23:00 +9°C° 0.1 mm 1 mps 735 mmHg 84%

    Tomorrow, 19 February, Monday

    Time Temperature Precipitation Wind Pressure Humidity
    00:00 +9°C° 0.1 mm 1 mps 735 mmHg 84%
    01:00 +9°C° 0.1 mm 1 mps 734 mmHg 84%
    02:00 +9°C° 0.2 mm 1 mps 734 mmHg 84%
    03:00 +9°C° 0.2 mm 1 mps 734 mmHg 85%
    04:00 +9°C° 0.2 mm 1 mps 734 mmHg 85%
    05:00 +8°C° 0.2 mm 2 mps 734 mmHg 85%
    06:00 +8°C° 0.2 mm 2 mps 734 mmHg 85%
    07:00 +7°C° 0.2 mm 2 mps 734 mmHg 85%
    08:00 +8°C° 0.1 mm 2 mps 734 mmHg 80%
    09:00 +9°C° 0.1 mm 2 mps 734 mmHg 76%
    10:00 +10°C° 0.1 mm 2 mps 734 mmHg 72%
    11:00 +12°C° 0.1 mm 2 mps 734 mmHg 69%
    12:00 +12°C° 0.1 mm 2 mps 733 mmHg 67%
    13:00 +13°C° 0.1 mm 2 mps 733 mmHg 64%
    14:00 +12°C° 0.4 mm 2 mps 733 mmHg 68%
    15:00 +12°C° 0.4 mm 1 mps 732 mmHg 72%
    16:00 +11°C° 0.4 mm 1 mps 732 mmHg 76%
    17:00 +11°C° 0.5 mm 1 mps 732 mmHg 78%
    18:00 +10°C° 0.5 mm 1 mps 732 mmHg 81%
    19:00 +10°C° 0.5 mm 1 mps 733 mmHg 84%
    20:00 +9°C° 0.6 mm 2 mps 733 mmHg 85%
    21:00 +8°C° 0.6 mm 2 mps 733 mmHg 86%
    22:00 +8°C° 0.6 mm 2 mps 733 mmHg 87%
    23:00 +8°C° 0.4 mm 2 mps 733 mmHg 87%

    Day after tomorrow, 20 February, Tuesday

    Time Temperature Precipitation Wind Pressure Humidity
    00:00 +8°C° 0.4 mm 2 mps 732 mmHg 87%
    01:00 +8°C° 0.4 mm 2 mps 732 mmHg 87%
    02:00 +8°C° 0.3 mm 2 mps 732 mmHg 87%
    03:00 +8°C° 0.3 mm 2 mps 732 mmHg 87%
    04:00 +8°C° 0.3 mm 2 mps 731 mmHg 86%
    05:00 +8°C° 0.3 mm 2 mps 731 mmHg 86%
    06:00 +8°C° 0.3 mm 2 mps 731 mmHg 85%
    07:00 +8°C° 0.3 mm 2 mps 731 mmHg 85%
    08:00 +8°C° 0.8 mm 2 mps 731 mmHg 83%
    09:00 +9°C° 0.8 mm 2 mps 731 mmHg 82%
    10:00 +9°C° 0.8 mm 2 mps 731 mmHg 80%
    11:00 +10°C° 0.7 mm 2 mps 731 mmHg 79%
    12:00 +10°C° 0.7 mm 3 mps 731 mmHg 77%
    13:00 +10°C° 0.7 mm 3 mps 730 mmHg 75%
    14:00 +10°C° 0.3 mm 3 mps 730 mmHg 75%
    15:00 +10°C° 0.3 mm 3 mps 730 mmHg 75%
    16:00 +11°C° 0.3 mm 3 mps 729 mmHg 75%
    17:00 +10°C° 0.3 mm 3 mps 729 mmHg 78%
    18:00 +9°C° 0.3 mm 3 mps 729 mmHg 81%
    19:00 +8°C° 0.3 mm 3 mps 730 mmHg 83%
    20:00 +8°C° 0.3 mm 3 mps 730 mmHg 84%
    21:00 +8°C° 0.3 mm 3 mps 730 mmHg 85%
    22:00 +8°C° 0.3 mm 3 mps 730 mmHg 85%
    23:00 +8°C° 0.2 mm 3 mps 730 mmHg 85%

    21 February, Wednesday

    Time Temperature Precipitation Wind Pressure Humidity
    00:00 +8°C° 0.2 mm 3 mps 730 mmHg 86%
    01:00 +7°C° 0.2 mm 2 mps 730 mmHg 86%
    02:00 +7°C° 0.2 mm 2 mps 729 mmHg 86%
    03:00 +7°C° 0.2 mm 2 mps 729 mmHg 86%
    04:00 +7°C° 0.2 mm 2 mps 729 mmHg 86%
    05:00 +7°C° 0.1 mm 2 mps 729 mmHg 85%
    06:00 +7°C° 0.1 mm 2 mps 729 mmHg 85%
    07:00 +7°C° 0.1 mm 2 mps 729 mmHg 85%
    08:00 +8°C° 0 mm 2 mps 729 mmHg 81%
    09:00 +10°C° 0 mm 3 mps 728 mmHg 77%
    10:00 +11°C° 0 mm 3 mps 728 mmHg 73%
    11:00 +12°C° 0 mm 3 mps 728 mmHg 70%
    12:00 +12°C° 0 mm 3 mps 727 mmHg 67%
    13:00 +13°C° 0 mm 3 mps 727 mmHg 65%
    14:00 +13°C° 0 mm 3 mps 726 mmHg 66%
    15:00 +12°C° 0 mm 3 mps 726 mmHg 67%
    16:00 +12°C° 0 mm 3 mps 726 mmHg 68%
    17:00 +11°C° 0 mm 3 mps 726 mmHg 72%
    18:00 +10°C° 0 mm 3 mps 726 mmHg 75%
    19:00 +9°C° 0 mm 3 mps 726 mmHg 78%
    20:00 +9°C° 0.1 mm 3 mps 726 mmHg 79%
    21:00 +8°C° 0.1 mm 3 mps 726 mmHg 79%
    22:00 +8°C° 0.1 mm 3 mps 726 mmHg 80%
    23:00 +8°C° 0 mm 3 mps 726 mmHg 81%

    22 February, Thursday

    Time Temperature Precipitation Wind Pressure Humidity
    00:00 +8°C° 0 mm 3 mps 725 mmHg 81%
    01:00 +7°C° 0 mm 3 mps 725 mmHg 82%
    02:00 +7°C° 0.3 mm 3 mps 725 mmHg 82%
    03:00 +8°C° 0.3 mm 3 mps 725 mmHg 81%
    04:00 +8°C° 0.3 mm 3 mps 724 mmHg 81%
    05:00 +8°C° 1.2 mm 3 mps 724 mmHg 84%
    06:00 +7°C° 1.2 mm 3 mps 725 mmHg 86%
    07:00 +7°C° 1.2 mm 2 mps 725 mmHg 89%
    08:00 +8°C° 0.8 mm 2 mps 725 mmHg 87%
    09:00 +8°C° 0.8 mm 3 mps 725 mmHg 84%
    10:00 +9°C° 0.8 mm 3 mps 725 mmHg 82%
    11:00 +10°C° 0.3 mm 3 mps 725 mmHg 77%
    12:00 +11°C° 0.3 mm 4 mps 725 mmHg 72%
    13:00 +12°C° 0.3 mm 4 mps 725 mmHg 67%
    14:00 +12°C° 0.3 mm 4 mps 725 mmHg 69%
    15:00 +12°C° 0.3 mm 3 mps 726 mmHg 71%
    16:00 +12°C° 0.3 mm 3 mps 726 mmHg 73%
    17:00 +11°C° 0.2 mm 3 mps 726 mmHg 78%
    18:00 +10°C° 0.2 mm 2 mps 726 mmHg 83%
    19:00 +9°C° 0.2 mm 2 mps 727 mmHg 87%
    20:00 +9°C° 0.2 mm 2 mps 727 mmHg 88%
    21:00 +8°C° 0.2 mm 2 mps 727 mmHg 88%
    22:00 +8°C° 0.2 mm 2 mps 727 mmHg 88%
    23:00 +8°C° 0.1 mm 2 mps 727 mmHg 88%

    23 February, Friday

    Time Temperature Precipitation Wind Pressure Humidity
    00:00 +8°C° 0.1 mm 2 mps 727 mmHg 87%
    01:00 +7°C° 0.1 mm 2 mps 727 mmHg 87%
    02:00 +8°C° 0.3 mm 2 mps 727 mmHg 86%
    03:00 +8°C° 0.3 mm 3 mps 726 mmHg 85%
    04:00 +8°C° 0.3 mm 3 mps 726 mmHg 84%
    05:00 +8°C° 0.3 mm 3 mps 726 mmHg 84%
    06:00 +8°C° 0.3 mm 3 mps 726 mmHg 83%
    07:00 +8°C° 0.3 mm 3 mps 726 mmHg 82%
    08:00 +9°C° 0 mm 3 mps 726 mmHg 77%
    09:00 +10°C° 0 mm 3 mps 725 mmHg 71%
    10:00 +12°C° 0 mm 3 mps 725 mmHg 66%
    11:00 +12°C° 0.5 mm 4 mps 725 mmHg 65%
    12:00 +12°C° 0.5 mm 4 mps 724 mmHg 65%
    13:00 +12°C° 0.5 mm 5 mps 723 mmHg 65%
    14:00 +11°C° 1.4 mm 4 mps 723 mmHg 72%
    15:00 +10°C° 1.4 mm 4 mps 723 mmHg 78%
    16:00 +9°C° 1.4 mm 3 mps 722 mmHg 85%
    17:00 +9°C° 0.7 mm 3 mps 722 mmHg 85%
    18:00 +9°C° 0.7 mm 3 mps 723 mmHg 85%
    19:00 +8°C° 0.7 mm 3 mps 723 mmHg 86%
    20:00 +8°C° 0.5 mm 3 mps 723 mmHg 88%
    21:00 +8°C° 0.5 mm 3 mps 723 mmHg 90%
    22:00 +7°C° 0.5 mm 3 mps 724 mmHg 93%
    23:00 +7°C° 0.6 mm 3 mps 724 mmHg 93%
    Show more